This is the latest recevied weather packets stored in our database for station/object MB7UIK. If no packets are shown the sender has not sent any weather packets the latest 1 day(s).
| Time | Temp. | Humidity | Pressure | Rain* | Wind** | Luminosity | Snow |
|---|---|---|---|---|---|---|---|
| 1778043644 | 9.44° C | 100% | 1011 hPa | 0 mm | 0.45 m/s, 263° | - | - |
| 1778043584 | 9.44° C | 100% | 1011 hPa | 0 mm | 0.45 m/s, 298° | - | - |
| 1778043524 | 10° C | 100% | 1011 hPa | 0 mm | 0.45 m/s, 263° | - | - |
| 1778043465 | 10° C | 100% | 1011 hPa | 0 mm | 0.89 m/s, 262° | - | - |
| 1778043433 | 10° C | 100% | 1011 hPa | 0 mm | 0.89 m/s, 262° | - | - |
| 1778043405 | 10° C | 100% | 1011 hPa | 0 mm | 0.45 m/s, 278° | - | - |
| 1778043345 | 10° C | 100% | 1011 hPa | 0 mm | 1.34 m/s, 284° | - | - |
| 1778043285 | 10° C | 100% | 1011 hPa | 0 mm | 0.45 m/s, 303° | - | - |
| 1778043225 | 10° C | 100% | 1011 hPa | 0 mm | 0 m/s | - | - |
| 1778043165 | 10° C | 100% | 1011 hPa | 0 mm | 0.45 m/s, 327° | - | - |
| 1778043131 | 10° C | 100% | 1011 hPa | 0 mm | 0.45 m/s, 327° | - | - |
| 1778043105 | 10° C | 100% | 1010.9 hPa | 0 mm | 0 m/s | - | - |
| 1778043045 | 10° C | 100% | 1010.9 hPa | 0 mm | 0.89 m/s, 341° | - | - |
| 1778042985 | 10° C | 100% | 1010.9 hPa | 0 mm | 0.45 m/s, 305° | - | - |
| 1778042925 | 10° C | 100% | 1010.9 hPa | 0 mm | 0.89 m/s, 334° | - | - |
| 1778042865 | 10° C | 100% | 1010.9 hPa | 0 mm | 1.34 m/s, 315° | - | - |
| 1778042831 | 10° C | 100% | 1010.9 hPa | 0 mm | 1.34 m/s, 315° | - | - |
| 1778042805 | 10° C | 100% | 1010.9 hPa | 0 mm | 0.89 m/s, 333° | - | - |
| 1778042745 | 10° C | 100% | 1010.9 hPa | 0 mm | 1.34 m/s, 328° | - | - |
| 1778042685 | 10° C | 100% | 1010.9 hPa | 0 mm | 0.89 m/s, 347° | - | - |
| 1778042624 | 10° C | 100% | 1010.9 hPa | 0 mm | 0.89 m/s, 344° | - | - |
| 1778042565 | 10° C | 100% | 1010.9 hPa | 0 mm | 0.45 m/s, 5° | - | - |
| 1778042531 | 10° C | 100% | 1010.9 hPa | 0 mm | 0.45 m/s, 5° | - | - |
| 1778042505 | 10° C | 100% | 1010.9 hPa | 0 mm | 1.34 m/s, 331° | - | - |
| 1778042445 | 10° C | 100% | 1010.8 hPa | 0 mm | 1.34 m/s, 360° | - | - |
* Rain latest hour (hover to see other rain measurements)
** Current wind speed in m/s (hover to see current wind gust speed)